User: anonymous   Login
Location: Cypress Hills Dark-Sky Preserve - CHICO
(49.6176°N, 110.2634°W)
Time: 06:03:27
(UTC-07:00)
Language:

SPOT 5 - Orbit

View from above orbital plane
View from above orbital plane
View from above satellite
View from above satellite

Ground track
Ground track

The orbit data is extracted from the following two-line orbital elements,

1 27421U 02021A   18053.17226246  .00000024  00000-0  17298-4 0  9995
2 27421  98.3726 121.2940 0133878 283.0874  75.5413 14.51915648821947
Epoch (UTC): 22 February 2018 04:08:03
Eccentricity: 0.0133878
inclination: 98.3726°
perigee height: 624 km
apogee height: 814 km
right ascension of ascending node: 121.2940°
argument of perigee: 283.0874°
revolutions per day: 14.51915648
mean anomaly at epoch: 75.5413°
orbit number at epoch: 82194

The dashed part of the orbit path shows where the satellite is in the earth's shadow,  

DLR